FW6620 Weather Reports


time (UTC)temp
F
wind
direction
speed
knots
gust
knots
rain 1hr
in
rain 24hr
in
rain mn
in
humidity
%
barometer
mb
20220524035045 78 108 0.0 2.6 0.00 0.00 0.00 77 1011.5
20220524034554 78 0 0.0 3.5 0.00 0.00 0.00 76 1011.8
20220524034045 78 108 0.9 3.5 0.00 0.00 0.00 76 1011.8
20220524033547 79 0 0.0 6.1 0.00 0.00 0.00 75 1011.6
20220524033119 79 0 0.9 7.8 0.00 0.00 0.00 75 1011.4
20220524032544 79 0 0.9 7.8 0.00 0.00 0.00 74 1011.6
20220524032045 80 91 0.9 3.5 0.00 0.00 0.00 72 1011.7
20220524031557 80 0 0.0 3.5 0.00 0.00 0.00 70 1011.7
20220524031045 80 0 0.0 2.6 0.00 0.00 0.00 70 1011.5
20220524030545 80 138 0.0 1.7 0.00 0.00 0.00 69 1011.2
20220524030059 80 0 0.0 2.6 0.00 0.00 0.00 69 1011.0
20220524025544 80 0 0.0 2.6 0.00 0.00 0.00 69 1010.7
20220524025044 80 0 0.0 2.6 0.00 0.00 0.00 69 1010.6
20220524024559 80 0 0.0 2.6 0.00 0.00 0.00 68 1010.8
20220524024047 80 0 0.0 2.6 0.00 0.00 0.00 68 1010.8
20220524023547 80 0 0.0 2.6 0.00 0.00 0.00 68 1010.8
20220524023100 80 0 0.0 1.7 0.00 0.00 0.00 68 1010.7
20220524022544 80 0 0.0 2.6 0.00 0.00 0.00 68 1010.5
20220524022045 80 0 0.0 3.5 0.00 0.00 0.00 68 1010.8
20220524021600 81 0 0.0 3.5 0.00 0.00 0.00 67 1011.0
20220524021047 81 0 0.0 2.6 0.00 0.00 0.00 68 1011.2
20220524020552 81 0 0.0 1.7 0.00 0.00 0.00 67 1011.1
20220524020100 81 0 0.0 2.6 0.00 0.00 0.00 66 1011.1
20220524015544 81 130 0.0 2.6 0.00 0.00 0.00 66 1011.0
20220524015046 81 124 0.0 2.6 0.00 0.00 0.00 66 1011.1
20220524014556 81 0 0.0 3.5 0.00 0.00 0.00 65 1011.3
20220524014046 81 0 0.0 3.5 0.00 0.00 0.00 65 1011.2
20220524013546 82 118 0.0 0.9 0.00 0.00 0.00 64 1011.2
20220524013100 82 0 0.0 0.9 0.00 0.00 0.00 64 1011.4
20220524012545 82 102 0.0 1.7 0.00 0.00 0.00 64 1011.2
20220524012043 82 0 0.0 1.7 0.00 0.00 0.00 64 1011.2
20220524011600 82 0 0.0 1.7 0.00 0.00 0.00 63 1011.2
20220524011044 82 0 0.0 2.6 0.00 0.00 0.00 63 1011.3
20220524010543 82 102 0.0 2.6 0.00 0.00 0.00 63 1011.3
20220524010107 82 0 0.9 3.5 0.00 0.00 0.00 63 1011.3
20220524005544 82 102 0.9 3.5 0.00 0.00 0.00 62 1011.4
20220524005044 82 0 0.0 3.5 0.00 0.00 0.00 62 1011.5
20220524004604 82 0 0.0 6.1 0.00 0.00 0.00 62 1011.4
20220524004047 82 120 0.9 6.1 0.00 0.00 0.00 62 1011.1
20220524003544 83 112 0.0 5.2 0.00 0.00 0.00 61 1011.0
20220524003102 83 0 0.0 5.2 0.00 0.00 0.00 61 1010.9
20220524002544 83 112 0.9 7.8 0.00 0.00 0.00 61 1011.2
20220524002110 83 124 0.9 7.8 0.00 0.00 0.00 61 1011.3
20220524001605 83 116 1.7 7.0 0.00 0.00 0.00 61 1011.3
20220524001046 83 122 0.9 6.1 0.00 0.00 0.00 61 1011.2
20220524000544 83 132 0.9 8.7 0.00 0.00 0.00 61 1011.2
20220524000058 83 107 2.6 8.7 0.00 0.00 0.00 61 1011.1
20220523235547 83 112 0.9 7.8 0.00 0.00 0.00 61 1011.0
20220523235044 83 116 1.7 7.0 0.00 0.00 0.00 61 1011.2
20220523234558 83 0 1.7 7.8 0.00 0.00 0.00 61 1011.2
20220523234044 83 105 1.7 7.8 0.00 0.00 0.00 61 1011.3
20220523233545 83 138 1.7 7.0 0.00 0.00 0.00 61 1011.3
20220523233103 83 110 0.9 6.1 0.00 0.00 0.00 62 1011.5
20220523232544 83 103 0.9 7.0 0.00 0.00 0.00 62 1011.7
20220523232045 83 91 1.7 7.0 0.00 0.00 0.00 62 1011.8
20220523231606 82 120 0.9 5.2 0.00 0.00 0.00 62 1011.9
20220523231044 82 124 0.9 5.2 0.00 0.00 0.00 62 1011.7
20220523230545 82 0 1.7 5.2 0.00 0.00 0.00 62 1011.6
20220523230111 82 0 0.9 3.5 0.00 0.00 0.00 62 1011.8
20220523225544 82 0 0.9 3.5 0.00 0.00 0.00 63 1011.8
20220523225047 82 95 0.9 6.1 0.00 0.00 0.00 63 1012.0
20220523224556 82 118 0.9 6.1 0.00 0.00 0.00 63 1012.0
20220523224045 82 122 0.9 3.5 0.00 0.00 0.00 64 1012.2
20220523223544 82 121 0.9 6.1 0.00 0.00 0.00 63 1012.5
20220523223058 82 125 0.9 6.1 0.00 0.00 0.00 64 1012.5
20220523222543 82 115 0.9 5.2 0.00 0.00 0.00 64 1012.7
20220523222043 81 111 0.0 6.1 0.00 0.00 0.00 64 1012.7
20220523221600 81 99 0.0 6.1 0.00 0.00 0.00 65 1012.8
20220523221044 81 111 0.9 3.5 0.00 0.00 0.00 66 1012.8
20220523220543 81 0 0.0 0.9 0.00 0.00 0.00 67 1012.8
20220523220053 81 0 0.0 0.9 0.00 0.00 0.00 68 1012.9
20220523215544 82 0 0.0 0.9 0.00 0.00 0.00 67 1012.8
20220523215044 82 0 0.0 5.2 0.00 0.00 0.00 66 1013.0
20220523214559 82 0 0.9 5.2 0.00 0.00 0.00 64 1013.0
20220523214044 83 103 0.9 5.2 0.00 0.00 0.00 61 1013.1
20220523213544 84 113 1.7 6.1 0.00 0.00 0.00 60 1013.1
20220523213056 84 103 1.7 7.8 0.00 0.00 0.00 57 1013.0
20220523212545 84 119 0.9 7.8 0.00 0.00 0.00 58 1013.0
20220523212048 84 126 0.9 5.2 0.00 0.00 0.00 58 1013.1
20220523211558 84 120 0.0 6.1 0.00 0.00 0.00 59 1013.1
20220523211048 84 110 0.9 6.1 0.00 0.00 0.00 58 1013.0
20220523210546 84 129 2.6 6.1 0.00 0.00 0.00 57 1013.2
20220523210049 84 91 1.7 7.0 0.00 0.00 0.00 58 1013.2
20220523205546 84 134 2.6 7.0 0.00 0.00 0.00 56 1013.1
20220523205047 84 88 0.9 7.0 0.00 0.00 0.00 57 1013.2
20220523204548 85 212 0.9 6.1 0.00 0.00 0.00 57 1013.2
20220523204044 85 105 0.9 6.1 0.00 0.00 0.00 57 1013.2
20220523203544 85 54 1.7 6.1 0.00 0.00 0.00 57 1013.2
20220523203054 85 119 1.7 6.1 0.00 0.00 0.00 57 1013.3
20220523202544 85 85 0.9 6.1 0.00 0.00 0.00 59 1013.5
20220523202047 85 160 1.7 7.8 0.00 0.00 0.00 59 1013.4
20220523201550 85 0 2.6 7.8 0.00 0.00 0.00 59 1013.4
20220523201048 85 0 0.0 3.5 0.00 0.00 0.00 62 1013.4
20220523200548 84 106 0.9 5.2 0.00 0.00 0.00 62 1013.4
20220523200104 84 0 0.9 9.6 0.00 0.00 0.00 60 1013.7
20220523195543 84 110 2.6 9.6 0.00 0.00 0.00 61 1013.7
20220523195046 84 202 1.7 7.8 0.00 0.00 0.00 61 1013.7
20220523194600 84 113 3.5 7.8 0.00 0.00 0.00 59 1013.7
20220523194044 85 126 0.9 7.0 0.00 0.00 0.00 59 1013.7
20220523193550 84 123 1.7 6.1 0.00 0.00 0.00 60 1013.9
20220523193100 84 91 0.9 8.7 0.00 0.00 0.00 60 1014.0
20220523192544 84 131 3.5 8.7 0.00 0.00 0.00 60 1014.0
20220523192044 84 106 1.7 7.8 0.00 0.00 0.00 61 1014.3
20220523191556 84 118 1.7 4.3 0.00 0.00 0.00 60 1014.5
20220523191044 84 0 0.9 6.1 0.00 0.00 0.00 63 1014.7
20220523190544 83 0 0.0 6.1 0.00 0.00 0.00 63 1014.9
20220523190108 83 116 0.9 6.1 0.00 0.00 0.00 63 1014.9
20220523185544 83 91 0.9 6.1 0.00 0.00 0.00 63 1015.1
20220523185044 83 103 0.0 6.1 0.00 0.00 0.00 65 1015.2
20220523184559 83 0 0.9 6.1 0.00 0.00 0.00 66 1015.3
20220523184043 82 100 0.0 6.1 0.00 0.00 0.00 66 1015.5
20220523183547 82 108 1.7 6.1 0.00 0.00 0.00 67 1015.8
20220523183058 81 100 0.9 3.5 0.00 0.00 0.00 67 1015.7
20220523182546 81 0 0.0 5.2 0.00 0.00 0.00 69 1015.8
20220523182047 80 0 0.0 5.2 0.00 0.00 0.00 69 1015.9
20220523181553 80 0 0.9 6.1 0.00 0.00 0.00 69 1016.1
20220523181045 80 111 0.9 6.1 0.00 0.00 0.00 69 1016.2
20220523180547 80 105 0.9 3.5 0.00 0.00 0.00 69 1016.3
20220523180055 80 107 0.0 1.7 0.00 0.00 0.00 69 1016.2
20220523175544 80 107 0.0 3.5 0.00 0.00 0.00 68 1016.4
20220523175046 80 121 0.9 5.2 0.00 0.00 0.00 69 1016.5
20220523174604 80 121 0.9 5.2 0.00 0.00 0.00 70 1016.5
20220523174045 80 120 1.7 4.3 0.00 0.00 0.00 69 1016.6
20220523173544 80 133 0.0 3.5 0.00 0.00 0.00 71 1016.6
20220523173139 79 0 0.0 2.6 0.00 0.00 0.00 72 1016.6
20220523172545 79 0 0.0 3.5 0.00 0.00 0.00 71 1016.7
20220523172046 79 133 0.9 3.5 0.00 0.00 0.00 71 1016.7
20220523171605 79 128 0.9 3.5 0.00 0.00 0.00 71 1016.8
20220523171046 79 0 0.0 2.6 0.00 0.00 0.00 73 1016.9
20220523170547 78 140 0.9 2.6 0.00 0.00 0.00 74 1016.8
20220523170102 78 0 0.0 2.6 0.00 0.00 0.00 77 1017.0
20220523165543 77 124 0.9 3.5 0.00 0.00 0.00 77 1017.1
20220523165046 76 130 0.0 3.5 0.00 0.00 0.00 78 1017.2
20220523164557 75 118 0.0 2.6 0.00 0.00 0.00 79 1017.3
20220523164043 75 118 0.0 2.6 0.00 0.00 0.00 80 1017.5
20220523163547 74 118 0.0 3.5 0.00 0.00 0.00 81 1017.8
20220523163054 74 118 0.0 3.5 0.00 0.00 0.00 81 1017.9
20220523162544 74 118 0.9 3.5 0.00 0.00 0.00 81 1018.0
20220523162044 73 118 0.9 3.5 0.00 0.00 0.00 81 1018.2
20220523161605 73 118 0.0 1.7 0.00 0.00 0.00 82 1018.3
20220523161045 73 0 0.0 1.7 0.00 0.00 0.00 83 1018.3
20220523160545 73 0 0.0 2.6 0.00 0.00 0.00 83 1018.4
20220523160058 73 118 0.9 2.6 0.00 0.00 0.00 82 1018.6
20220523155544 72 0 0.0 2.6 0.00 0.00 0.00 84 1018.5
20220523155046 72 0 0.0 3.5 0.00 0.00 0.00 84 1018.6
20220523154606 72 0 0.9 3.5 0.00 0.00 0.00 83 1018.7
20220523154052 72 0 0.0 6.1 0.00 0.00 0.00 84 1018.7
20220523153545 71 102 0.9 6.1 0.00 0.00 0.00 84 1018.7
20220523153128 71 115 0.9 3.5 0.00 0.00 0.00 85 1018.7
20220523152546 71 0 0.0 2.6 0.00 0.00 0.00 85 1018.7
20220523152044 71 0 0.0 2.6 0.00 0.00 0.00 86 1018.8
20220523151600 71 60 0.0 2.6 0.00 0.00 0.00 86 1018.9
20220523151047 70 0 0.9 2.6 0.00 0.00 0.00 86 1019.1
20220523150544 70 0 0.0 1.7 0.00 0.00 0.00 87 1018.9
20220523150116 70 0 0.0 1.7 0.00 0.00 0.00 87 1019.1
20220523145552 69 0 0.0 1.7 0.00 0.00 0.00 87 1019.3
20220523145045 69 0 0.0 1.7 0.00 0.00 0.00 88 1019.5
20220523144550 69 0 0.0 1.7 0.00 0.00 0.00 87 1019.7
20220523144044 69 0 0.0 1.7 0.00 0.00 0.00 88 1019.7
20220523143544 69 0 0.0 1.7 0.00 0.00 0.00 88 1019.7
20220523143106 69 315 0.0 2.6 0.00 0.00 0.00 87 1019.7
20220523142547 69 0 0.0 2.6 0.00 0.00 0.00 87 1019.7
20220523142043 69 0 0.0 1.7 0.00 0.00 0.00 88 1019.9
20220523141605 69 0 0.0 0.9 0.00 0.00 0.00 87 1019.9
20220523141045 69 315 0.0 1.7 0.00 0.00 0.00 87 1019.9
20220523140552 69 315 0.0 1.7 0.00 0.00 0.00 87 1020.0
20220523140103 69 0 0.0 0.9 0.00 0.00 0.00 87 1020.0
20220523135547 69 0 0.0 1.7 0.00 0.00 0.00 87 1019.8
20220523135048 69 0 0.0 1.7 0.00 0.00 0.00 87 1019.6
20220523134558 69 0 0.0 1.7 0.00 0.00 0.00 88 1019.4
20220523134044 69 0 0.0 2.6 0.00 0.00 0.00 88 1019.5
20220523133544 68 0 0.0 2.6 0.00 0.00 0.00 88 1019.5
20220523133058 68 0 0.0 1.7 0.00 0.00 0.00 88 1019.5
20220523132544 68 0 0.0 0.9 0.00 0.00 0.00 88 1019.5
20220523132046 68 0 0.0 0.9 0.00 0.00 0.00 88 1019.4
20220523131601 68 0 0.0 0.9 0.00 0.00 0.00 89 1019.3
20220523131047 68 0 0.0 0.9 0.00 0.00 0.00 89 1019.4
20220523130545 68 0 0.0 0.9 0.00 0.00 0.00 89 1019.4
20220523130106 67 0 0.0 0.9 0.00 0.00 0.00 89 1019.4
20220523125544 67 0 0.0 0.9 0.00 0.00 0.00 89 1019.4
20220523125044 67 0 0.0 0.9 0.00 0.00 0.00 90 1019.3
20220523124558 67 0 0.0 0.0 0.00 0.00 0.00 90 1019.3
20220523124045 67 0 0.0 0.0 0.00 0.00 0.00 90 1019.5
20220523123544 67 0 0.0 0.0 0.00 0.00 0.00 90 1019.5
20220523123050 67 0 0.0 0.0 0.00 0.00 0.00 90 1019.4
20220523122544 67 0 0.0 0.0 0.00 0.00 0.00 90 1019.3
20220523122044 67 0 0.0 0.0 0.00 0.00 0.00 90 1019.3
20220523121548 67 0 0.0 0.0 0.00 0.00 0.00 89 1019.3
20220523121044 67 0 0.0 0.0 0.00 0.00 0.00 90 1019.3
20220523120544 67 0 0.0 0.0 0.00 0.00 0.00 90 1019.3
20220523120052 67 0 0.0 0.0 0.00 0.00 0.00 89 1019.4
20220523115545 67 0 0.0 0.0 0.00 0.00 0.00 89 1019.4
20220523115045 67 0 0.0 0.0 0.00 0.00 0.00 89 1019.4
20220523114604 67 0 0.0 0.0 0.00 0.00 0.00 89 1019.3
20220523114044 67 0 0.0 0.9 0.00 0.00 0.00 89 1019.2
20220523113545 67 0 0.0 0.9 0.00 0.00 0.00 89 1019.3
20220523113055 67 0 0.0 0.0 0.00 0.00 0.00 89 1019.2
20220523112543 67 0 0.0 0.0 0.00 0.00 0.00 89 1019.1
20220523112045 67 0 0.0 0.0 0.00 0.00 0.00 89 1019.0
20220523111555 67 0 0.0 0.9 0.00 0.00 0.00 89 1019.0
20220523111047 67 0 0.0 1.7 0.00 0.00 0.00 88 1018.9
20220523110549 67 0 0.0 1.7 0.00 0.00 0.00 88 1018.9
20220523110054 67 0 0.0 0.9 0.00 0.00 0.00 88 1018.8
20220523105544 67 0 0.0 1.7 0.00 0.00 0.00 88 1018.7
20220523105044 67 0 0.0 1.7 0.00 0.00 0.00 88 1018.6
20220523104551 67 0 0.0 1.7 0.00 0.00 0.00 88 1018.5
20220523104046 67 0 0.0 0.9 0.00 0.00 0.00 88 1018.5
20220523103552 67 0 0.0 0.9 0.00 0.00 0.00 88 1018.6
20220523103051 67 0 0.0 0.9 0.00 0.00 0.00 87 1018.6
20220523102546 67 0 0.0 0.9 0.00 0.00 0.00 87 1018.6
20220523102044 67 0 0.0 0.9 0.00 0.00 0.00 87 1018.6
20220523101551 67 0 0.0 1.7 0.00 0.00 0.00 86 1018.7
20220523101045 67 0 0.0 2.6 0.00 0.00 0.00 86 1018.5
20220523100544 67 0 0.0 2.6 0.00 0.00 0.00 86 1018.5
20220523100054 67 0 0.0 1.7 0.00 0.00 0.00 86 1018.4
20220523095544 67 307 0.0 1.7 0.00 0.00 0.00 86 1018.5
20220523095044 67 0 0.0 0.9 0.00 0.00 0.00 86 1018.5
20220523094551 67 0 0.0 1.7 0.00 0.00 0.00 86 1018.4
20220523094046 67 0 0.0 1.7 0.00 0.00 0.00 86 1018.4
20220523093547 67 0 0.0 0.9 0.00 0.00 0.00 86 1018.4
20220523093104 67 0 0.0 0.9 0.00 0.00 0.00 86 1018.4
20220523092544 67 0 0.0 0.9 0.00 0.00 0.00 86 1018.3
20220523092044 68 0 0.0 1.7 0.00 0.00 0.00 86 1018.3
20220523091558 68 0 0.0 1.7 0.00 0.00 0.00 86 1018.4
20220523091044 68 0 0.0 1.7 0.00 0.00 0.00 86 1018.3
20220523090547 68 0 0.0 1.7 0.00 0.00 0.00 85 1018.3
20220523090116 68 0 0.0 1.7 0.00 0.00 0.00 85 1018.3
20220523085544 68 0 0.0 0.9 0.00 0.00 0.00 85 1018.4
20220523085045 68 0 0.0 0.9 0.00 0.00 0.00 85 1018.5
20220523084550 68 0 0.0 1.7 0.00 0.00 0.00 86 1018.5
20220523084044 68 0 0.0 3.5 0.00 0.00 0.00 85 1018.5
20220523083551 68 0 0.0 3.5 0.00 0.00 0.00 85 1018.6
20220523083053 68 213 0.0 2.6 0.00 0.00 0.00 85 1018.6
20220523082546 68 0 0.0 1.7 0.00 0.00 0.00 85 1018.7
20220523082044 68 0 0.0 1.7 0.00 0.00 0.00 85 1018.6
20220523081625 68 213 0.0 1.7 0.00 0.00 0.00 85 1018.6
20220523081044 68 0 0.0 1.7 0.00 0.00 0.00 85 1018.4
20220523080544 68 209 0.0 0.9 0.00 0.00 0.00 85 1018.4
20220523080109 68 0 0.0 0.9 0.00 0.00 0.00 85 1018.4
20220523075546 68 0 0.0 0.9 0.00 0.00 0.00 85 1018.4
20220523075044 68 0 0.0 0.9 0.00 0.00 0.00 86 1018.5
20220523074606 68 0 0.0 1.7 0.00 0.00 0.00 86 1018.7
20220523074044 68 0 0.0 1.7 0.00 0.00 0.00 86 1018.6
20220523073546 68 0 0.0 0.9 0.00 0.00 0.00 86 1018.7
20220523073059 68 0 0.0 1.7 0.00 0.00 0.00 86 1018.9
20220523072544 68 0 0.0 1.7 0.00 0.00 0.00 86 1018.8
20220523072044 68 0 0.0 0.9 0.00 0.00 0.00 86 1019.1
20220523071604 68 0 0.0 0.0 0.00 0.00 0.00 87 1019.3
20220523071044 68 0 0.0 1.7 0.00 0.00 0.00 87 1019.3
20220523070545 68 0 0.0 1.7 0.00 0.00 0.00 87 1019.6
20220523070100 68 0 0.0 1.7 0.00 0.00 0.00 87 1019.6
20220523065544 68 0 0.0 0.0 0.00 0.00 0.00 87 1019.7
20220523065044 68 0 0.0 1.7 0.00 0.00 0.00 87 1019.7
20220523064607 68 0 0.0 1.7 0.00 0.00 0.00 87 1019.8
20220523064045 68 0 0.0 1.7 0.00 0.00 0.00 87 1019.7
20220523063544 68 0 0.0 0.9 0.00 0.00 0.00 87 1019.9
20220523063054 68 0 0.0 0.9 0.00 0.00 0.00 87 1020.0
20220523062544 68 0 0.0 0.9 0.00 0.00 0.00 86 1020.0
20220523062045 68 0 0.0 1.7 0.00 0.00 0.00 86 1019.9
20220523061556 68 0 0.0 1.7 0.00 0.00 0.00 86 1019.9
20220523061045 68 0 0.0 1.7 0.00 0.00 0.00 86 1019.8
20220523060546 68 0 0.0 1.7 0.00 0.00 0.00 86 1019.8
20220523060107 68 0 0.0 2.6 0.00 0.00 0.00 85 1019.9
20220523055544 68 0 0.0 2.6 0.00 0.00 0.00 85 1019.9
20220523055044 68 0 0.0 1.7 0.00 0.00 0.00 85 1020.0
20220523054607 68 0 0.0 1.7 0.00 0.00 0.00 85 1019.9
20220523054044 68 114 0.0 2.6 0.00 0.00 0.00 85 1019.8
20220523053543 68 0 0.0 2.6 0.00 0.00 0.00 85 1019.8
20220523053104 69 0 0.0 0.9 0.00 0.00 0.00 84 1019.8
20220523052546 69 0 0.0 1.7 0.00 0.00 0.00 84 1019.8
20220523052043 69 0 0.0 1.7 0.00 0.00 0.00 84 1019.8
20220523051607 69 0 0.0 0.9 0.00 0.00 0.00 84 1019.9
20220523051043 69 0 0.0 1.7 0.00 0.00 0.00 84 1020.0
20220523050548 69 0 0.0 1.7 0.00 0.00 0.00 83 1020.2
20220523050055 69 0 0.0 0.9 0.00 0.00 0.00 83 1020.2
20220523045544 69 0 0.0 0.9 0.00 0.35 0.00 83 1020.1
20220523045045 70 114 0.0 1.7 0.00 0.35 0.00 82 1020.2
20220523044553 70 0 0.0 1.7 0.00 0.35 0.00 82 1020.1
20220523044045 70 114 0.0 2.6 0.00 0.35 0.00 82 1020.3
20220523043545 70 121 0.0 3.5 0.00 0.35 0.00 82 1020.3
20220523043058 70 115 0.0 3.5 0.00 0.35 0.00 81 1020.1
20220523042550 70 0 0.0 2.6 0.00 0.35 0.00 81 1019.9
20220523042043 71 0 0.0 0.9 0.00 0.35 0.00 80 1019.8
20220523041615 71 0 0.0 1.7 0.00 0.35 0.00 80 1019.8
20220523041045 71 0 0.0 1.7 0.00 0.35 0.00 79 1019.8
20220523040545 71 0 0.0 0.9 0.00 0.35 0.00 79 1019.8
20220523040103 71 0 0.0 1.7 0.00 0.35 0.00 79 1019.7
20220523035545 71 0 0.0 1.7 0.00 0.35 0.00 78 1019.6